Observations for Trim Market St
| Time | AQI | Temp °C | Hum % | Pres Pa | CO μg/m³ | H₂S μg/m³ | NO μg/m³ | NO₂ μg/m³ | O₃ μg/m³ | SO₂ μg/m³ | PM1 μg/m³ | PM2.5 μg/m³ | PM10 μg/m³ |
|---|---|---|---|---|---|---|---|---|---|---|---|---|---|
| Wednesday 15 July 2026 | |||||||||||||
| 00:56 | 1 | 17.8 | 66 | 57,274 | 0.1 | 0 | 0 | 6.96 | 25.79 | 0 | 4.99 | 8.66 | 14.04 |
| 00:55 | 1 | 17.8 | 66 | 57,291 | 0.09 | 0 | 0 | 6.06 | 25.07 | 0 | 6.41 | 9.64 | 13.39 |
| 00:54 | 1 | 17.8 | 66 | 57,309 | 0.1 | 0 | 0 | 6.27 | 26.42 | 0 | 6.41 | 11.12 | 17.31 |
| 00:53 | 1 | 17.8 | 66 | 57,320 | 0.09 | 0 | 0 | 6.79 | 24.8 | 0 | 6.41 | 10.15 | 14.05 |
| 00:52 | 1 | 17.8 | 66 | 57,338 | 0.1 | 0 | 0 | 6.6 | 25.94 | 0 | 4.99 | 8.68 | 14.06 |
| 00:51 | 1 | 17.8 | 66 | 57,355 | 0.09 | 0 | 0 | 5.8 | 32.04 | 0 | 6.41 | 10.15 | 14.71 |
| 00:48 | 1 | 17.8 | 65 | 57,390 | 0.1 | 0 | 0 | 6.53 | 25.15 | 0 | 5.7 | 9.68 | 13.42 |
| 00:46 | 1 | 17.8 | 65 | 57,427 | 0.08 | 0 | 0 | 6.15 | 26.35 | 0 | 7.13 | 13.15 | 18.02 |
| 00:44 | 1 | 17.9 | 65 | 57,465 | 0.07 | 0 | 0 | 6.94 | 27.04 | 0 | 6.41 | 11.67 | 16.72 |
| 00:37 | 1 | 17.9 | 65 | 57,552 | 0.07 | 0 | 0 | 5.98 | 22.21 | 0 | 4.28 | 7.26 | 10.16 |
| 00:34 | 1 | 17.9 | 64 | 57,572 | 0.07 | 0 | 0 | 5.61 | 25.45 | 0 | 6.41 | 7.76 | 11.49 |
| 00:33 | 1 | 18 | 64 | 57,583 | 0.05 | 0 | 0 | 6.19 | 22.77 | 0 | 5.7 | 9.25 | 12.81 |
| 00:32 | 1 | 18 | 64 | 57,591 | 0.07 | 0 | 0 | 5.79 | 24.58 | 0 | 6.41 | 11.23 | 17.44 |
| 00:30 | 1 | 18 | 64 | 57,602 | 0.06 | 0 | 0 | 5.8 | 22.24 | 0 | 4.28 | 8.27 | 11.5 |
| 00:29 | 1 | 18 | 64 | 57,607 | 0.06 | 0 | 0 | 5 | 22.77 | 0 | 5.7 | 9.75 | 14.8 |
| 00:28 | 1 | 18 | 64 | 57,609 | 0.05 | 0 | 0 | 5.4 | 22.45 | 0 | 4.99 | 7.78 | 10.84 |
| 00:25 | 1 | 18.1 | 64 | 57,616 | 0.07 | 0 | 0.33 | 5.49 | 23.54 | 0 | 5.7 | 8.28 | 13.49 |
| 00:24 | 1 | 18.1 | 64 | 57,619 | 0.06 | 0 | 0 | 6.2 | 22.73 | 0 | 4.99 | 8.78 | 13.49 |
| 00:23 | 1 | 18.1 | 64 | 57,624 | 0.07 | 0 | 0 | 5.6 | 23.1 | 0 | 4.99 | 9.27 | 12.83 |
| 00:22 | 1 | 18.1 | 64 | 57,626 | 0.05 | 0 | 0 | 4.9 | 23.07 | 0 | 6.41 | 9.77 | 14.15 |